Weather History for KHQM - September, 2013

Change the Weather History Date:

Wednesday, September 25, 2013

  Actual Average Record
Temperature  
Mean Temperature 52 °F 57 °F  
Max Temperature 61 °F 65 °F 84 °F (1991)
Min Temperature 42 °F 49 °F 36 °F (1972)
Degree Days  
Heating Degree Days 13 8  
Month to date heating degree days 98 147  
Cooling Degree Days 0 0  
Month to date cooling degree days 7 0  
Year to date cooling degree days 20 16  
Growing Degree Days 1 (Base 50)    
Moisture  
Dew Point 46 °F    
Average Humidity 80    
Maximum Humidity 100    
Minimum Humidity 60    
Precipitation  
Precipitation 0.00 in 0.09 in 1.00 in (1959)
Month to date precipitation 3.42 1.78  
Year to date precipitation 37.76 39.39  
Sea Level Pressure  
Sea Level Pressure 29.93 in    
Wind  
Wind Speed 3 mph (ENE)    
Max Wind Speed 13 mph    
Max Gust Speed 15 mph    
Visibility 6 miles    
Events Fog    
T = Trace of Precipitation, MM = Missing Value Source: NWS Daily Summary

Daily Weather History Graph

Daily Weather History Graph

Search for Another Location

Airport or City:

Trip Planner

Search our weather history database for the weather conditions in past years. The results will help you decide how hot, cold, wet, or windy it might be!

Date:

Astronomy

Sep. 25, 2013 Rise Set
Actual Time 7:06 AM PDT 7:06 PM PDT
Civil Twilight 6:36 AM PDT 7:36 PM PDT
Nautical Twilight 6:01 AM PDT 8:12 PM PDT
Astronomical Twilight 5:24 AM PDT 8:48 PM PDT
Moon 10:58 PM PDT (9/25) 1:37 PM PDT (9/25)
Length of Visible Light 13h 00m
Length of Day
11h 59m
Waning Gibbous, 63% of the Moon is Illuminated
Sep 25
Waning Gibbous
Sep 26
Last Quarter
Oct 4
New
Oct 11
First Quarter
Oct 18
Full

Hourly Weather History & Observations

Time (PDT) Temp. Windchill Dew Point Humidity Pressure Visibility Wind Dir Wind Speed Gust Speed Precip Events Conditions
12:53 AM 48.9 °F - 48.0 °F 97% 29.88 in 10.0 mi Calm Calm - N/A   Scattered Clouds
1:02 AM 48.2 °F - 46.4 °F 93% 29.86 in 8.0 mi Calm Calm - N/A   Mostly Cloudy
1:08 AM 48.2 °F - 48.2 °F 100% 29.87 in 1.8 mi Calm Calm - N/A   Mostly Cloudy
1:13 AM 48.2 °F - 48.2 °F 100% 29.87 in 0.8 mi Calm Calm - N/A   Mist
1:43 AM 48.2 °F - 46.4 °F 93% 29.86 in 2.0 mi Calm Calm - N/A   Overcast
1:53 AM 46.9 °F - 46.9 °F 100% 29.88 in 2.5 mi Calm Calm - N/A   Overcast
2:00 AM 46.4 °F - 46.4 °F 100% 29.87 in 3.0 mi Calm Calm - N/A   Overcast
2:05 AM 46.4 °F 45.2 °F 46.4 °F 100% 29.87 in 2.5 mi ENE 3.5 mph - N/A   Overcast
2:11 AM 46.4 °F - 46.4 °F 100% 29.87 in 5.0 mi Calm Calm - N/A   Overcast
2:28 AM 46.4 °F - 46.4 °F 100% 29.87 in 9.0 mi Calm Calm - N/A   Mostly Cloudy
2:53 AM 46.9 °F - 46.0 °F 97% 29.89 in 10.0 mi Calm Calm - N/A   Clear
3:33 AM 44.6 °F - 44.6 °F 100% 29.87 in 3.0 mi Calm Calm - N/A   Scattered Clouds
3:35 AM 44.6 °F - 44.6 °F 100% 29.87 in 1.8 mi Calm Calm - N/A   Scattered Clouds
3:38 AM 44.6 °F 43.1 °F 44.6 °F 100% 29.87 in 0.8 mi East 3.5 mph - N/A   Mist
3:48 AM 44.6 °F - 44.6 °F 100% 29.87 in 1.2 mi Calm Calm - N/A   Scattered Clouds
3:51 AM 44.6 °F - 44.6 °F 100% 29.87 in 3.0 mi Calm Calm - N/A   Scattered Clouds
3:53 AM 45.0 °F - 44.1 °F 97% 29.88 in 5.0 mi Calm Calm - N/A   Scattered Clouds
4:17 AM 44.6 °F - 44.6 °F 100% 29.88 in 2.5 mi Calm Calm - N/A   Mostly Cloudy
4:22 AM 44.6 °F 43.1 °F 44.6 °F 100% 29.88 in 4.0 mi NNE 3.5 mph - N/A   Scattered Clouds
4:39 AM 44.6 °F 43.1 °F 44.6 °F 100% 29.88 in 1.5 mi NE 3.5 mph - N/A   Mostly Cloudy
4:44 AM 44.6 °F 43.1 °F 44.6 °F 100% 29.88 in 0.2 mi NE 3.5 mph - N/A Fog Fog
4:53 AM 44.1 °F - 43.0 °F 96% 29.89 in 0.5 mi Calm Calm - N/A Fog Fog
5:04 AM 44.6 °F - 42.8 °F 93% 29.88 in 3.0 mi Calm Calm - N/A   Scattered Clouds
5:53 AM 44.1 °F 42.5 °F 43.0 °F 96% 29.91 in 10.0 mi ENE 3.5 mph - N/A   Mostly Cloudy
6:53 AM 43.0 °F 40.3 °F 42.1 °F 97% 29.92 in 10.0 mi ENE 4.6 mph - N/A   Clear
7:23 AM 42.8 °F 41.1 °F 42.8 °F 100% 29.92 in 2.5 mi ENE 3.5 mph - N/A   Clear
7:31 AM 42.8 °F 41.1 °F 42.8 °F 100% 29.92 in 5.0 mi ENE 3.5 mph - N/A   Clear
7:53 AM 44.1 °F 42.5 °F 44.1 °F 100% 29.93 in 4.0 mi NE 3.5 mph - N/A   Clear
8:53 AM 46.9 °F - 46.0 °F 97% 29.95 in 4.0 mi ENE 3.5 mph - N/A   Clear
9:53 AM 50.0 °F - 48.0 °F 93% 29.97 in 8.0 mi ESE 3.5 mph - N/A   Partly Cloudy
10:53 AM 53.1 °F - 48.0 °F 83% 29.97 in 10.0 mi Calm Calm - N/A   Clear
11:53 AM 57.0 °F - 48.9 °F 74% 29.98 in 10.0 mi East 6.9 mph - N/A   Clear
12:53 PM 57.9 °F - 48.9 °F 72% 29.99 in 10.0 mi South 3.5 mph - N/A   Partly Cloudy
1:53 PM 57.9 °F - 48.0 °F 70% 29.99 in 10.0 mi SSW 5.8 mph - N/A   Mostly Cloudy
2:53 PM 59.0 °F - 46.0 °F 62% 30.00 in 10.0 mi WSW 6.9 mph - N/A   Clear
3:53 PM 60.1 °F - 46.9 °F 62% 30.00 in 10.0 mi SW 8.1 mph - N/A   Clear
4:53 PM 60.1 °F - 48.0 °F 64% 30.01 in 10.0 mi WSW 9.2 mph - N/A   Clear
5:53 PM 59.0 °F - 48.9 °F 69% 30.02 in 10.0 mi West 8.1 mph - N/A   Clear
6:53 PM 57.9 °F - 46.9 °F 67% 30.03 in 10.0 mi WNW 5.8 mph - N/A   Clear
7:53 PM 55.0 °F - 46.9 °F 74% 30.04 in 10.0 mi Calm Calm - N/A   Scattered Clouds
8:53 PM 54.0 °F - 46.9 °F 77% 30.04 in 10.0 mi Calm Calm - N/A   Clear
9:53 PM 52.0 °F - 46.9 °F 83% 30.05 in 10.0 mi Calm Calm - N/A   Clear
10:53 PM 53.1 °F - 48.9 °F 86% 30.04 in 10.0 mi West 3.5 mph - N/A   Clear
11:53 PM 52.0 °F - 48.9 °F 89% 30.05 in 10.0 mi WSW 4.6 mph - N/A   Clear